Weather in Kochevo

Russia / Perm Krai     59°35′53″N   54°18′48″E
temp.,
°C
wind,
m/s
gust,
m/s
humid.,
%
clouds,
%
prec.,
mm/h
press.,
hPa
HPBL,
m
2 march, tue
tue223:00−12ssw5129198 0.0 1008429
02:00−11ssw51393100 0.4 1004593
05:00−11ssw51293100 1.0 1000598
08:00−11ssw51293100 1.0 996587
11:00−9ssw51194100 2.1 995542
14:00−7ssw5994100 1.4 993530
17:00−5s4795100 2.5 992439
20:00−5ssw3796100 0.8 992296
3 march, wed
wed323:00−7sw129799 0.9 99322
02:00−8w239698 0.0 99247
05:00−8w239794 0.0 99387
08:00−7w3796100 0.0 993238
11:00−6wnw3694100 0.1 994336
14:00−4nw3690100 0.1 995603
17:00−4wnw3688100 0.2 996724
20:00−8wnw3994100 0.0 997306
4 march, thu
thu423:00−11w259672 0.0 99896
02:00−10wsw389586 0.0 997247
05:00−12wsw389685 0.0 997167
08:00−11wsw389496 0.1 997313
11:00−9wsw379294 0.1 996391
14:00−6sw4688100 0.1 995826
17:00−5ssw3686100 0.2 995800
20:00−7s41193100 0.1 993552
5 march, fri
fri523:00−6sse41193100 0.4 990635
02:00−6sse51195100 1.1 985686
05:00−4sse3996100 3.6 982482
08:00−6w5148799 0.7 982694
11:00−7w6118991 0.8 987714
14:00−8wnw61188100 0.4 992801
17:00−9wnw51088100 0.4 998667
20:00−13wnw41092100 0.1 1002487
6 march, sat
sat623:00−15wnw2796100 0.1 1005161
02:00−18w259889 0.0 1007109
05:00−21w239856 0.0 100925
08:00−22wsw12980 0.0 100920
11:00−16ssw139230 0.0 1008210
14:00−11s228897 0.0 1006485
17:00−10s128799 0.1 1004532
20:00−15s1297100 0.1 100320